Location: Newark
(15.4608°S, 41.1635°W)
Time: 23:15:35
(UTC+00:00)

Courier 1B - Visible Passes

Search period start: 30 July 2021 00:00
Search period end: 09 August 2021 00:00
Orbit: 962 x 1209 km, 28.3° (Epoch: 30 July)

Date Brightness Start Highest point End Pass type
(mag) Time Alt. Az. Time Alt. Az. Time Alt. Az.
30 Jul 9.0 06:51:59 24° N 06:54:24 30° NNE 06:59:58 10° E visible
30 Jul 7.5 08:41:47 10° WNW 08:48:17 80° SSW 08:54:53 10° ESE visible
31 Jul 9.6 06:02:28 19° NE 06:02:28 19° NE 06:05:27 10° E visible
31 Jul 7.6 07:49:26 17° WNW 07:54:32 77° NNE 08:01:03 10° ESE visible
01 Aug 7.9 06:59:48 51° N 07:00:49 56° NNE 07:07:09 10° ESE visible
02 Aug 9.3 06:10:02 26° E 06:10:02 26° E 06:13:08 10° E visible
02 Aug 7.5 07:56:58 23° W 08:01:05 65° SSW 08:07:33 10° ESE visible
03 Aug 7.3 07:07:05 82° WSW 07:07:18 85° SSW 07:13:49 10° ESE visible
04 Aug 9.1 06:17:06 29° ESE 06:17:06 29° ESE 06:20:04 10° ESE visible
04 Aug 8.0 08:04:02 22° WSW 08:07:47 42° SSW 08:13:54 10° SE visible
05 Aug 7.7 07:13:57 53° SSW 07:13:57 53° SSW 07:20:15 10° SE visible
06 Aug 9.1 06:23:47 27° SE 06:23:47 27° SE 06:26:37 10° ESE visible
06 Aug 8.5 08:10:41 17° WSW 08:14:40 31° SSW 08:20:20 10° SE visible
07 Aug 8.2 07:20:27 36° SSW 07:20:40 36° SSW 07:26:38 10° SE visible
08 Aug 9.1 06:30:09 25° SE 06:30:09 25° SE 06:33:00 10° SE visible
08 Aug 8.7 08:17:03 13° SW 08:21:39 26° S 08:27:01 10° SE visible
